Location: Warszawa
(52.2500°N, 21.0000°E)
Time: 21:21:13
(UTC+02:00)

A-11 Canister half - Pass Details

Date: 15 February 2023
Orbit: 1526 x 1682 km, 47.3° (Epoch: 27 March)

Event Time Altitude Azimuth Distance (km) Brightness Sun altitude
Exits shadow 01:48:09 26° 111° (ESE) 2,631 10.2 -44.0°
Drops below altitude 10° 01:53:03 10° 84° (E) 3,698 11.4 -43.5°
Sets 01:56:30 0° 75° (ENE) 4,688 12.2 -43.2°
